Change the Weather History Date:

Monday, March 31, 2014

  Actual Average Record
Temperature  
Mean Temperature 50 °F -  
Max Temperature 62 °F 55 °F 82 °F (1963)
Min Temperature 39 °F 38 °F 25 °F (1950)
Degree Days  
Heating Degree Days 14    
Moisture  
Dew Point 39 °F    
Average Humidity 79    
Maximum Humidity 100    
Minimum Humidity 37    
Precipitation  
Precipitation 0.00 in - - ()
Sea Level Pressure  
Sea Level Pressure 29.94 in    
Wind  
Wind Speed 14 mph (North)    
Max Wind Speed 20 mph    
Max Gust Speed 31 mph    
Visibility 9 miles    
Events Rain    
Averages and records for this station are not official NWS values.
T = Trace of Precipitation, MM = Missing Value Source: NWS Daily Summary

Daily Weather History Graph

Daily Weather History Graph

Search for Another Location

Airport or City:

Trip Planner

Search our weather history database for the weather conditions in past years. The results will help you decide how hot, cold, wet, or windy it might be!

Date:

Astronomy

Mar. 31, 2014 Rise Set
Actual Time 6:50 AM EDT 7:26 PM EDT
Civil Twilight 6:23 AM EDT 7:53 PM EDT
Nautical Twilight 5:52 AM EDT 8:25 PM EDT
Astronomical Twilight 5:19 AM EDT 8:57 PM EDT
Moon 7:13 AM EDT (3/31) 8:42 PM EDT (3/31)
Length of Visible Light 13h 29m
Length of Day
12h 36m
New Moon, 1% of the Moon is Illuminated
Mar 31
New Moon
Apr 7
First Quarter
Apr 15
Full
Apr 22
Last Quarter
Apr 29
New

Hourly Weather History & Observations

Time (EDT) Temp. Windchill Dew Point Humidity Pressure Visibility Wind Dir Wind Speed Gust Speed Precip Events Conditions
12:17 AM 40.1 °F 31.6 °F 40.1 °F 100% 29.81 in 4.0 mi North 16.1 mph 26.5 mph N/A   Overcast
12:37 AM 40.1 °F 31.3 °F 40.1 °F 100% 29.82 in 7.0 mi North 17.3 mph 26.5 mph N/A   Drizzle
12:58 AM 39.9 °F 31.1 °F 39.9 °F 100% 29.83 in 7.0 mi North 17.3 mph 23.0 mph N/A   Mostly Cloudy
1:18 AM 40.1 °F 33.2 °F 40.1 °F 100% 29.84 in 10.0 mi North 11.5 mph 20.7 mph N/A   Mostly Cloudy
1:38 AM 40.5 °F 33.6 °F 40.5 °F 100% 29.85 in 7.0 mi North 11.5 mph 24.2 mph N/A   Mostly Cloudy
1:58 AM 39.9 °F 30.8 °F 39.9 °F 100% 29.85 in 5.0 mi North 18.4 mph 24.2 mph N/A   Drizzle
2:18 AM 40.1 °F 32.0 °F 40.1 °F 100% 29.85 in 7.0 mi North 15.0 mph 20.7 mph N/A   Light Drizzle
2:38 AM 39.7 °F 30.9 °F 39.7 °F 100% 29.86 in 7.0 mi North 17.3 mph 23.0 mph N/A Rain Light Rain
2:58 AM 39.7 °F 32.7 °F 39.7 °F 100% 29.86 in 10.0 mi North 11.5 mph 18.4 mph N/A   Drizzle
3:18 AM 40.1 °F 31.6 °F 40.1 °F 100% 29.86 in 10.0 mi North 16.1 mph 21.9 mph N/A   Mostly Cloudy
3:38 AM 40.6 °F 33.8 °F 40.6 °F 100% 29.87 in 10.0 mi North 11.5 mph 23.0 mph N/A   Mostly Cloudy
3:58 AM 41.2 °F 34.5 °F 41.2 °F 100% 29.87 in 10.0 mi North 11.5 mph 21.9 mph N/A   Mostly Cloudy
4:18 AM 41.0 °F 34.7 °F 41.0 °F 100% 29.88 in 7.0 mi North 10.4 mph 24.2 mph N/A   Overcast
4:38 AM 40.8 °F 32.6 °F 40.8 °F 100% 29.88 in 7.0 mi North 16.1 mph 21.9 mph N/A   Overcast
4:58 AM 41.2 °F 33.7 °F 41.2 °F 100% 29.89 in 10.0 mi North 13.8 mph 20.7 mph N/A   Overcast
5:18 AM 41.0 °F 33.1 °F 41.0 °F 100% 29.90 in 10.0 mi North 15.0 mph 19.6 mph N/A   Mostly Cloudy
5:38 AM 41.5 °F 33.2 °F 41.5 °F 100% 29.90 in 10.0 mi North 17.3 mph 23.0 mph N/A   Mostly Cloudy
5:52 AM 41.0 °F 33.5 °F 41.0 °F 100% 29.91 in 7.0 mi NNW 13.8 mph 23.0 mph N/A   Overcast
5:58 AM 41.9 °F 34.0 °F 41.7 °F 99% 29.91 in 10.0 mi North 16.1 mph 23.0 mph N/A   Overcast
6:18 AM 41.9 °F 34.0 °F 41.5 °F 99% 29.91 in 10.0 mi North 16.1 mph 24.2 mph N/A   Overcast
6:24 AM 41.9 °F 35.0 °F 41.4 °F 98% 29.92 in 10.0 mi North 12.7 mph 24.2 mph N/A   Overcast
6:52 AM 41.0 °F 34.3 °F 41.0 °F 100% 29.93 in 10.0 mi NNW 11.5 mph 18.4 mph N/A   Overcast
7:50 AM 42.8 °F 38.0 °F 39.2 °F 87% 29.95 in 10.0 mi NNW 8.1 mph 17.3 mph N/A   Mostly Cloudy
8:46 AM - - - N/A% 29.96 in 10.0 mi North 13.8 mph 24.2 mph N/A   Partly Cloudy
9:50 AM 46.4 °F 39.5 °F 35.6 °F 66% 30.00 in 10.0 mi North 17.3 mph 28.8 mph N/A   Scattered Clouds
10:53 AM 50.0 °F - 35.6 °F 58% 30.01 in 10.0 mi NNW 18.4 mph 29.9 mph N/A   Partly Cloudy
12:53 PM 55.4 °F - 37.4 °F 51% 30.03 in 10.0 mi NNW 19.6 mph 28.8 mph N/A   Scattered Clouds
1:53 PM 57.2 °F - 37.4 °F 48% 30.02 in 10.0 mi NNW 19.6 mph 28.8 mph N/A   Scattered Clouds
2:48 PM 59.0 °F - 37.4 °F 45% 30.02 in 10.0 mi North 13.8 mph 28.8 mph N/A   Partly Cloudy
3:45 PM 60.8 °F - 37.4 °F 42% 30.02 in 10.0 mi North 15.0 mph 31.1 mph N/A   Partly Cloudy
4:55 PM 62.6 °F - 35.6 °F 37% 30.00 in 10.0 mi North 15.0 mph 28.8 mph N/A   Partly Cloudy
5:45 PM 62.6 °F - 35.6 °F 37% 30.01 in 10.0 mi NNW 15.0 mph 28.8 mph N/A   Partly Cloudy
6:50 PM 60.8 °F - 35.6 °F 39% 30.02 in 10.0 mi WNW 11.5 mph 23.0 mph N/A   Clear
7:50 PM 55.4 °F - 35.6 °F 47% 30.04 in 10.0 mi NW 11.5 mph - N/A   Clear
8:50 PM 53.6 °F - 35.6 °F 51% 30.07 in 10.0 mi NW 6.9 mph - N/A   Clear
10:40 PM 52.9 °F - 32.2 °F 45% 30.10 in 10.0 mi NNE 3.5 mph - N/A   Clear
11:00 PM 46.4 °F 42.9 °F 33.1 °F 60% 30.10 in 10.0 mi ENE 6.9 mph - N/A   Clear
11:20 PM 53.8 °F - 33.1 °F 45% 30.10 in 10.0 mi NNE 11.5 mph - N/A   Clear
11:40 PM 52.7 °F - 33.1 °F 47% 30.11 in 10.0 mi NE 8.1 mph - N/A   Clear